Location: Baix
(44.7118°N, 4.7648°E)
Time: 08:33:45
(UTC+00:00)

Vanguard 2 Rocket - Pass Details

Date: 04 December 2020
Orbit: 554 x 3325 km, 32.9° (Epoch: 21 January)

Event Time Altitude Azimuth Distance (km) Brightness Sun altitude
Rises 05:40:44 0° 228° (SW) 6,377 10.9 -13.9°
Reaches altitude 10° 05:44:49 10° 222° (SW) 5,648 10.7 -13.2°
Maximum altitude 06:01:54 47° 157° (SSE) 4,017 10.5 -10.3°
Drops below altitude 10° 06:19:44 10° 92° (E) 5,896 12.3 -7.4°
Sets 06:24:04 0° 87° (E) 6,668 12.6 -6.7°
